Weather History for Farmville, VA

Change the Weather History Date:

Wednesday, July 17, 2013

  Actual Average Record
Temperature  
Mean Temperature 84 °F -  
Max Temperature 95 °F 89 °F 100 °F (2012)
Min Temperature 73 °F 65 °F 50 °F (1946)
Cooling Degree Days 19    
Growing Degree Days 34 (Base 50)    
Moisture  
Dew Point 74 °F    
Average Humidity 81    
Maximum Humidity 100    
Minimum Humidity 38    
Precipitation  
Precipitation 0.19 in - - ()
Sea Level Pressure  
Sea Level Pressure 30.18 in    
Wind  
Wind Speed 1 mph (North)    
Max Wind Speed 7 mph    
Max Gust Speed -    
Visibility 7 miles    
Events Fog , Rain , Thunderstorm    
Averages and records for this station are not official NWS values.
T = Trace of Precipitation, MM = Missing Value Source: NWS Daily Summary

Daily Weather History Graph

Daily Weather History Graph

Search for Another Location

Airport:

Trip Planner

Search our weather history database for the weather conditions in past years. The results will help you decide how hot, cold, wet, or windy it might be!

Date:

Astronomy

Jul. 17, 2013 Rise Set
Actual Time 6:06 AM EDT 8:32 PM EDT
Civil Twilight 5:36 AM EDT 9:02 PM EDT
Nautical Twilight 4:59 AM EDT 9:39 PM EDT
Astronomical Twilight 4:18 AM EDT 10:20 PM EDT
Moon 3:21 PM EDT (7/17) 1:09 AM EDT (7/17)
Length of Visible Light 15h 26m
Length of Day
14h 26m
Waxing Gibbous, 67% of the Moon is Illuminated
Jul 17
Waxing Gibbous
Jul 22
Full
Jul 29
Last Quarter
Aug 6
New
Aug 14
First Quarter

Hourly Weather History & Observations

Time (EDT) Temp. Heat Index Dew Point Humidity Pressure Visibility Wind Dir Wind Speed Gust Speed Precip Events Conditions
12:15 AM 75.2 °F - 75.2 °F 100% 30.21 in 4.0 mi Calm Calm - N/A   Scattered Clouds
12:35 AM 75.2 °F - 75.2 °F 100% 30.19 in 4.0 mi Calm Calm - N/A   Scattered Clouds
12:55 AM 75.2 °F - 75.2 °F 100% 30.19 in 4.0 mi Calm Calm - N/A   Clear
1:15 AM 75.2 °F - 75.2 °F 100% - 4.0 mi Calm Calm - N/A   Clear
1:35 AM 75.2 °F - 75.2 °F 100% 30.19 in 5.0 mi Calm Calm - N/A   Scattered Clouds
1:55 AM 75.2 °F - 75.2 °F 100% 30.19 in 5.0 mi Calm Calm - N/A   Scattered Clouds
2:15 AM 75.2 °F - 75.2 °F 100% 30.19 in 4.0 mi Calm Calm - N/A   Scattered Clouds
2:35 AM 75.2 °F - 75.2 °F 100% 30.20 in 4.0 mi Calm Calm - N/A   Mostly Cloudy
2:55 AM 75.2 °F - 75.2 °F 100% 30.19 in 4.0 mi Calm Calm - N/A Thunderstorm Scattered Clouds
3:15 AM 75.2 °F - 75.2 °F 100% 30.19 in 2.5 mi Calm Calm - N/A Thunderstorm Scattered Clouds
3:35 AM 75.2 °F - 73.4 °F 94% 30.20 in 3.0 mi Calm Calm - N/A   Clear
3:55 AM 75.2 °F - 73.4 °F 94% 30.20 in 3.0 mi Calm Calm - N/A   Clear
4:15 AM 75.2 °F - 73.4 °F 94% 30.20 in 3.0 mi Calm Calm - N/A   Clear
4:35 AM 73.4 °F - 73.4 °F 100% - 0.5 mi Calm Calm - N/A Fog Fog
4:55 AM 75.2 °F - 73.4 °F 94% 30.20 in 1.2 mi Calm Calm - N/A   Mostly Cloudy
5:15 AM 73.4 °F - 73.4 °F 100% 30.20 in 0.8 mi Calm Calm - N/A   Mostly Cloudy
5:35 AM 73.4 °F - 71.6 °F 94% 30.21 in 0.8 mi Calm Calm - N/A   Mostly Cloudy
5:55 AM 73.4 °F - 71.6 °F 94% 30.21 in 1.2 mi Calm Calm - N/A   Mostly Cloudy
6:15 AM 73.4 °F - 73.4 °F 100% 30.21 in 0.2 mi Calm Calm - N/A Fog Fog
6:35 AM 73.4 °F - 73.4 °F 100% 30.21 in 0.5 mi Calm Calm - N/A Fog Fog
6:55 AM 73.4 °F - 73.4 °F 100% 30.21 in 1.5 mi Calm Calm - N/A   Mist
7:15 AM 75.2 °F - 75.2 °F 100% 30.21 in 3.0 mi Calm Calm - N/A   Clear
7:35 AM 75.2 °F - 73.4 °F 94% 30.22 in 2.0 mi Calm Calm - N/A   Clear
7:55 AM 75.2 °F - 75.2 °F 100% 30.22 in 2.0 mi Calm Calm - N/A   Clear
8:15 AM 77.0 °F - 75.2 °F 94% 30.22 in 3.0 mi Calm Calm - N/A   Clear
8:35 AM 78.8 °F - 77.0 °F 94% 30.22 in 5.0 mi Calm Calm - N/A   Clear
8:55 AM 82.4 °F 92.4 °F 78.8 °F 89% 30.22 in 7.0 mi Calm Calm - N/A   Clear
9:15 AM 82.4 °F 92.4 °F 78.8 °F 89% 30.22 in 7.0 mi Calm Calm - N/A   Clear
9:35 AM 84.2 °F 96.1 °F 78.8 °F 84% 30.21 in 10.0 mi Calm Calm - N/A   Clear
9:55 AM 86.0 °F 99.3 °F 78.8 °F 79% 30.22 in 10.0 mi NE 4.6 mph - N/A   Clear
10:15 AM 86.0 °F 99.3 °F 78.8 °F 79% 30.22 in 10.0 mi NE 3.5 mph - N/A   Clear
10:35 AM 87.8 °F 104.9 °F 80.6 °F 79% 30.22 in 10.0 mi Calm Calm - N/A   Scattered Clouds
10:55 AM 87.8 °F 102.5 °F 78.8 °F 75% 30.22 in 10.0 mi Calm Calm - N/A   Scattered Clouds
11:15 AM 89.6 °F 96.2 °F 71.6 °F 55% 30.22 in 10.0 mi Calm Calm - N/A   Mostly Cloudy
11:35 AM 89.6 °F 94.7 °F 69.8 °F 52% 30.22 in 10.0 mi Calm Calm - N/A   Mostly Cloudy
11:55 AM 89.6 °F 94.7 °F 69.8 °F 52% 30.22 in 10.0 mi Calm Calm - N/A   Scattered Clouds
12:15 PM 91.4 °F 95.4 °F 68.0 °F 46% 30.22 in 10.0 mi East 3.5 mph - N/A   Scattered Clouds
12:35 PM 91.4 °F 95.4 °F 68.0 °F 46% 30.21 in 10.0 mi Calm Calm - N/A   Clear
12:55 PM 93.2 °F 98.8 °F 69.8 °F 46% 30.21 in 10.0 mi NE 3.5 mph - N/A   Clear
1:15 PM 91.4 °F 94.0 °F 66.2 °F 43% 30.20 in 10.0 mi Calm Calm - N/A   Clear
1:35 PM 91.4 °F 95.4 °F 68.0 °F 46% 30.19 in 10.0 mi North 3.5 mph - N/A   Clear
1:55 PM 91.4 °F 94.0 °F 66.2 °F 43% 30.19 in 10.0 mi Calm Calm - N/A   Scattered Clouds
2:15 PM 91.4 °F 94.0 °F 66.2 °F 43% 30.18 in 10.0 mi Calm Calm - N/A   Scattered Clouds
2:35 PM 93.2 °F 94.9 °F 64.4 °F 38% 30.17 in 10.0 mi Calm Calm - N/A   Clear
2:55 PM 93.2 °F 96.2 °F 66.2 °F 41% 30.17 in 10.0 mi Calm Calm - N/A   Clear
3:35 PM 95.0 °F 98.5 °F 66.2 °F 39% 30.15 in 10.0 mi Calm Calm - N/A   Scattered Clouds
4:15 PM 93.2 °F 96.2 °F 66.2 °F 41% 30.14 in 10.0 mi Calm Calm - N/A   Mostly Cloudy
4:35 PM 91.4 °F 96.8 °F 69.8 °F 49% 30.14 in 10.0 mi Calm Calm - N/A   Mostly Cloudy
4:55 PM 91.4 °F 95.4 °F 68.0 °F 46% 30.13 in 10.0 mi Calm Calm - N/A   Scattered Clouds
5:15 PM 89.6 °F 96.2 °F 71.6 °F 55% 30.12 in 10.0 mi Calm Calm - N/A   Scattered Clouds
5:35 PM 87.8 °F 97.6 °F 75.2 °F 66% 30.12 in 10.0 mi Calm Calm - N/A   Scattered Clouds
5:55 PM 87.8 °F 97.6 °F 75.2 °F 66% 30.11 in 10.0 mi Calm Calm - N/A   Clear
6:15 PM 87.8 °F 97.6 °F 75.2 °F 66% 30.11 in 10.0 mi Calm Calm - N/A   Scattered Clouds
6:35 PM 84.2 °F 90.9 °F 73.4 °F 70% 30.12 in 10.0 mi NNW 4.6 mph - N/A Thunderstorm Mostly Cloudy
6:55 PM 82.4 °F 92.4 °F 78.8 °F 89% 30.13 in 4.0 mi North 6.9 mph - 0.07 in Rain , Thunderstorm Heavy Thunderstorms and Rain
7:15 PM 82.4 °F 92.4 °F 78.8 °F 89% 30.13 in 5.0 mi West 5.8 mph - 0.09 in Thunderstorm Overcast
7:35 PM 82.4 °F 92.4 °F 78.8 °F 89% 30.14 in 7.0 mi North 5.8 mph - 0.10 in Thunderstorm Thunderstorm
7:55 PM 80.6 °F 88.1 °F 78.8 °F 94% 30.15 in 10.0 mi WNW 4.6 mph - N/A Rain , Thunderstorm Light Thunderstorms and Rain
8:15 PM 78.8 °F - 75.2 °F 89% 30.14 in 7.0 mi NNW 4.6 mph - N/A Thunderstorm Overcast
8:35 PM 78.8 °F - 75.2 °F 89% 30.13 in 10.0 mi Calm Calm - N/A   Mostly Cloudy
8:55 PM 78.8 °F - 75.2 °F 89% 30.13 in 10.0 mi Calm Calm - 0.01 in   Scattered Clouds
9:15 PM 77.0 °F - 75.2 °F 94% 30.13 in 7.0 mi Calm Calm - 0.01 in   Clear
9:35 PM 78.8 °F - 75.2 °F 89% 30.14 in 10.0 mi SSE 3.5 mph - 0.01 in   Clear
9:55 PM 77.0 °F - 75.2 °F 94% 30.14 in 7.0 mi Calm Calm - N/A   Clear
10:15 PM 77.0 °F - 75.2 °F 94% 30.15 in 7.0 mi Calm Calm - N/A   Clear
10:35 PM 77.0 °F - 75.2 °F 94% 30.14 in 5.0 mi Calm Calm - N/A   Clear
10:55 PM 77.0 °F - 75.2 °F 94% 30.14 in 4.0 mi Calm Calm - N/A   Clear
11:15 PM 77.0 °F - 75.2 °F 94% 30.14 in 7.0 mi West 4.6 mph - N/A   Clear
11:35 PM 78.8 °F - 75.2 °F 89% 30.14 in 10.0 mi Calm Calm - N/A   Clear
11:55 PM 75.2 °F - 75.2 °F 100% - 4.0 mi Calm Calm - N/A   Clear